STARLINK-36822, 67909

Orbit data source: Space-Track

STARLINK-36822, 67909 is a payload satellite owned by SpaceX/Seattle (US) in LEO that was launched on Sun, 22 Feb 2026 UTC via an FALCON 9 launch vehicle from the Air Force Eastern Test Range (AFETR). Payload-class satellites include a variety of spacecraft equipped with specific instruments for various scientific and technological missions. These include communications satellites like Starlink; space stations such as the ISS; scientific satellites like the Hubble; Earth observation satellites from companies like Planet Labs, Umbra, and HawkEye 360; GPS; miniature CubeSats for education and research; and military/defense satellites.

Loading next visibility...
Identifier
67909, 2026-036F
Orbit
LEO
Country
Flag of USUS
Related business
Manufacturer
SpaceX/Seattle
Mission
Operational spacecraft
Bus & Motor
STARLINK V2MO, Unknown motor
Mass
575 kg wet, ~530 kg dry
Launch date (UTC)
2026-02-22 (2 months ago)
Launch vehicle
FALCON 9
Launch site
Air Force Eastern Test Range (AFETR)
Object type
Payload
Rocket body
Debris
Shape & HBR
Unknown shape, 17.7 m
Radar Cross Section
RCS unknown

Expand to show TLE details & history
Last TLE update: 11 hours ago

TLE from 11 hours ago
0 STARLINK-36822
1 67909U 26036F   26103.91668981 -.00001159  00000-0 -32639-4 0  9993
2 67909  43.0040  46.4917 0001167 248.7812 256.6744 15.27550493  5923
Epoch: 2026-04-13T22:00Z
TLE epoch observation values (Epoch: 2026-04-13T22:00:01.999Z)
Latitude
22.83821°
Longitude
27.6992°
Altitude
482.934 km
Speed
7.628 km/s
True Right ascension
13h 19m 13s
True Declination
22° 42' 38"
Sunlit
Object was in full shadow at epoch
Visualization orbit readout
Latitude
Unknown
Longitude
Unknown
Altitude
Unknown
Speed
Unknown
Apparent Right ascension
Unknown
Apparent Declination
Unknown
Sunlit
N/A
Visualization observer readout
Local Sidereal Time
15:08:14
Azimuth
Unknown
Elevation
Unknown
Doppler factor
Unknown
Orbital elements
Apogee altitude
485.883 km
Perigee altitude
484.281 km
Semi-major axis
6,863.219 km
Eccentricity
0.00012
Inclination
43.004°
RAAN
46.4917°
Arg. of periapsis
248.7812°
True anomaly
256.66139°
Mean anomaly
256.6744°
Eccentric anomaly
256.66789°
Mean motion
3.81726 °/min
Orbital period
94.31 mins
BSTAR
-0.000032639
Loading maneuver chart data...
Computing Atmospheric mass density...
Loading historical data...
Loading historical data...
Loading historical data...
Loading historical data...
Loading historical data...
Loading historical data...
Loading historical data...

Documentation

Showing up to 5 results
|